Current Version              Previous Version:    01  02  03  04  05  06  07  08  09  10  11  12  13  14  15  16  17  18  19  20  21  22  23  24  25  26  27  28  29  30  
   31  32  33  34  35  36  37  38  39  40  41  42  43  44  45  46  47  48  49  50  51  52  53  54  55  56  57  58  59  60  

[Printable]
176
ASUS44 KEWX 020310
RWRTX
SOUTH TEXAS REGIONAL WEATHER ROUNDUP
NATIONAL WEATHER SERVICE AUSTIN/SAN ANTONIO TX
1000 PM CDT MON SEP 01 2014

NOTE: "FAIR" INDICATED FEW OR NO CLOUDS BELOW 12,000 FEET WITH NO
SIGNIFICANT WEATHER AND/OR OBSTRUCTIONS TO VISIBILITY.

* - THESE STATIONS ARE NOT NWS OR FAA STATIONS...AND ARE NOT SUBJECT
    TO NWS AND FAA QUALITY CONTROL.

TXZ171-172-183>190-020400-
TEXAS HILL COUNTRY AND EDWARDS PLATEAU

CITY           SKY/WX    TMP DP  RH WIND       PRES   REMARKS
JUNCTION       CLEAR     86  63  45 S6        29.91R
*LLANO         CLEAR     90  68  48 S10G16    29.92R HX  93
BURNET         CLEAR     86  68  54 S7G23     29.93R
*HORSESHOE BAY CLEAR     87  66  50 S10G18    29.91R
*KERRVILLE     CLEAR     84  68  58 SE15      29.93R
*FREDERICKSBRG PTCLDY    85  67  54 S9G18     29.94R
*ROCKSPRINGS   CLEAR     84  61  45 SE8       29.96S
*BOERNE STAGE  CLEAR     84  66  54 SE12G21   29.95R
*CASTROVILLE   CLEAR     87  67  51 SE16      29.91R HX  90
HONDO          CLEAR     88  70  55 SE20G30   29.91R HX  93
*UVALDE        CLEAR     91  68  46 SE15G21   29.87R HX  95
DEL RIO        CLEAR     93  62  35 SE9       29.82R HX  93
LAUGHLIN AFB   CLEAR     91  62  38 SE10      29.84R HX  91
CARRIZO SPRGS  CLEAR     90  70  51 SE16G26   29.83R HX  95
$$

TXZ173-191>194-202-209-217>225-228-020400-
CENTRAL AND SOUTH CENTRAL TEXAS

CITY           SKY/WX    TMP DP  RH WIND       PRES   REMARKS
GEORGETOWN     CLEAR     88  68  51 S9G16     29.92R HX  91
AUSTIN/BERGSTM CLEAR     86  71  60 S13       29.90R HX  91
AUSTIN/MABRY   CLEAR     87  70  56 VRB5G17   29.91R HX  92
*AUSTIN/EXEC   CLOUDY    84  68  58 S10       29.92R
*LAGO VISTA    CLEAR     86  68  55 SE9G18    29.93S
SAN MARCOS     CLEAR     84  64  51 S15       29.93R
NEW BRAUNFELS  CLEAR     86  70  58 S16       29.90R HX  90
RANDOLPH AFB   CLEAR     85  69  59 SE16      29.92R
PT SAN ANTONIO CLEAR     87  71  60 SE14      29.89R HX  92
SAN ANTONIO    CLEAR     87  71  58 SE17G24   29.91R HX  93
STINSON FIELD  CLEAR     86  71  60 SE17G24   29.89R HX  91
*PLEASANTON    CLEAR     85  69  57 SE16      29.90R
*LA GRANGE     CLEAR     85  74  69 SE9       29.91R HX  93
*GIDDINGS      CLEAR     84  70  61 S9        29.97R
*GONZALES      CLEAR     84  73  70 SE7       29.91R HX  90
$$

TXZ163>164-176>182-195>201-210>213-226-227-235-020400-
SOUTHEAST TEXAS

CITY           SKY/WX    TMP DP  RH WIND       PRES   REMARKS
COLLEGE STN    CLEAR     85  72  65 SE13      29.93R HX  91
*BRYAN         CLEAR     83  73  70 SE8       29.92R
*CALDWELL      CLEAR     84  70  61 SE12      29.96R
*CROCKETT      CLEAR     84  77  79 SE5       29.97R HX  94
*BRENHAM       CLEAR     84  73  69 SE5       29.94R HX  90
HUNTSVILLE     CLEAR     84  73  69 VRB6      29.95R HX  90
CONROE         CLEAR     81  75  82 SE7       29.96R
HOUSTON BUSH   PTCLDY    81  75  83 SE6       29.95R
HOUSTON HOBBY  PTCLDY    82  76  81 SE5       29.95R
*HOUSTON SW AP CLEAR     79  79  99 E3        29.96R
PEARLAND       CLEAR     83  77  82 SE6       29.96R HX  92
HOUSTON HOOKS  CLEAR     83  74  74 SE6       29.95R
ELLINGTON FLD  PTCLDY    82  77  83 SE5       29.96S HX  91
SUGAR LAND     CLEAR     83  77  82 SE12      29.95R HX  92
*HOUSTON EXEC  CLEAR     82  77  83 SE9       29.95R HX  91
*CLEVELAND MUN CLEAR     78  77  94 CALM      29.97R
*WHARTON       CLEAR     79  76  91 SE6       29.95R
$$

TXZ214>216-236>238-020400-
THE UPPER TEXAS COAST

CITY           SKY/WX    TMP DP  RH WIND       PRES   REMARKS
*ORANGE        CLEAR     82  79  92 SE6       29.99S HX  91
PORT ARTHUR    CLEAR     81  77  88 S7        29.97R
GALVESTON      PTCLDY    84  79  85 SE15      29.97R HX  96
ANGLETON       CLEAR     80  77  90 SE5       29.95R
*BAY CITY      CLEAR     82  82 100 E6        29.94R HX  95
PALACIOS       CLEAR     83  77  82 SE9       29.92R HX  92
$$

TXZ229>234-239>247-020400-
TEXAS COASTAL BEND AND RIO GRANDE PLAINS

CITY           SKY/WX    TMP DP  RH WIND       PRES   REMARKS
VICTORIA       CLEAR     83  77  82 SE10      29.92R HX  92
*BEEVILLE      PTCLDY    82  76  82 SE9       29.90R HX  90
ROCKPORT       CLEAR     84  77  79 SE13      29.91R HX  94
*PORT ARANSAS  PTCLDY    84  77  79 SE10      29.91R HX  93
*PORT LAVACA   CLEAR     82  77  86 SE8       29.92R
*INGLESIDE     CLEAR     85  76  75 SE12G18   29.90R HX  94
CORPUS CHRISTI PTCLDY    83  77  82 SE12      29.89R HX  92
CORPUS NAS     PTCLDY    85  79  82 SE15      29.90R HX  98
*ROBSTOWN      CLEAR     84  77  78 SE12      29.90R HX  94
ALICE          LGT RAIN  83  76  79 SE10      29.89R HX  91
KINGSVILLE NAS CLEAR     83  79  88 SE8       29.89R HX  94
COTULLA        CLEAR     88  70  55 SE23G29   29.87R HX  93
*FAITH RANCH   CLEAR     91  68  46 SE15G23   29.83R HX  95
LAREDO         CLEAR     90  73  57 SE20      29.87R HX  98
$$

TXZ248>255-020400-
DEEP SOUTH TEXAS

CITY           SKY/WX    TMP DP  RH WIND       PRES   REMARKS
BROWNSVILLE    CLEAR     83  79  88 E8        29.89R HX  94
PORT ISABEL    CLEAR     86  77  74 SE13      29.88R HX  97
*SOUTH PADRE     N/A     84  81  89 E10       29.89R HX  98
HARLINGEN      CLEAR     83  77  82 E8        29.87R HX  92
*HEBBRONVILLE  CLEAR     84  73  69 E14       29.90R HX  90
MCALLEN        CLEAR     84  75  74 SE10      29.88R HX  92
*WESLACO       NOT AVBL
FALFURRIAS     CLEAR     77  71  81 E8        29.88R
EDINBURG       CLEAR     86  75  69 E13       29.87S HX  95
*ZAPATA        CLEAR     88  71  55 E14G24    29.85R HX  94
$$

TXZ213>215-236>238-242>244-246-247-251-254-255-020400-
CMAN STATIONS

STATION/POSITION TIME  TEMP    WIND        PRES    WAVE
                       AIR SEA DIR/SP/G            HT/PER
                 (UTC) (F)     (DEG/KT/KT) (MB)    (FT/S)
SABINE PASS      0300   84 84  150/ 10/ 12 1015.3
SEA RIM ST PARK  0300   84     140/ 13/ 15 1015.7
NORTH JETTY/GLS  0300   82 84  200/ 19/ 20   N/A
EAGLE POINT      0300   84 85  170/ 12/ 13 1014.4
MORGANS POINT    0300   84     140/  7/ 11 1014.2
MISSION/ARANSAS  0200   83     120/ 12     1013.0
PORT O`CONNOR    0300          130/ 13/ 16   N/A
PORT ARANSAS     0300   84 86  110/ 15/ 16 1013.4
MALAQUITE BEACH  0300   84 85  120/ 14/ 16 1011.7
BAFFIN BAY       0300   84 86  130/ 11/ 14 1012.2
PORT ISABEL      0300   84 85  100/  6/  9 1012.4
$$

GMZ080-GMZ150>470-020400-
OFFSHORE BUOY REPORTS

STATION/POSITION TIME  TEMP    WIND        PRES    WAVE
                       AIR SEA DIR/SP/G            HT/PER
                 (UTC) (F)     (DEG/KT/KT) (MB)    (FT/S)
20 E GALVESTON   0300   85 85  150/ 14/ 16 1014.1    3/ 7
90 E PT ARANSAS  0300   85 86  120/ 12/ 14 1013.9    4/ 7
35 NE PT MANSFLD 0300   85 85  120/ 14/ 16 1011.9    4/ 7
200 E PT ISABEL  0300   85 85  130/ 19/ 21 1013.0    5/ 7
$$